Date String (YYYY-MM-DD hh:mm:ss) UTC,Instrument flags,absolute air pressure of the measurement (hPa),sample flow rate (lpm),inlet stack bypass flow (lpm),air temperature of the measurement (°C),ambient temperature measured by the external sensor (°C),aerosol sample conditioner tube jacket temperature (°C),OPC LED temperature (°C),internal box temperature (°C),relative humidity of the measurement (%),span deviation,mass concentration of particles derived from Lorenz-Mie calculation of OPC scattering (μg/m³),mass concentration of particles derived from Lorenz-Mie calculation of OPC scattering (μg/m³),mass concentration of particles derived from Lorenz-Mie calculation of OPC scattering (μg/m³)
DateTimeUTC,F1_M11,P_M11,Q1_M11,Q2_M11,T1_M11,T2_M11,T3_M11,T4_M11,T5_M11,U1_M11,ZSPAN_M11,X2_M11,X0_M11,X1_M11
2023-12-28 05:00:00,SystemResetWarning,0832.2,4.99,000.00,021.1,019.8,000.0,029.5,022.4,10.3,0000.0,0001.64,0005.96,0001.20
2023-12-28 05:01:00,SystemResetWarning,0832.2,4.99,000.00,021.1,019.8,000.0,029.5,022.4,10.3,0000.0,0001.66,0006.10,0001.19
2023-12-28 05:02:00,SystemResetWarning,0832.2,5.00,000.00,021.1,019.8,000.0,029.5,022.4,10.3,0000.0,0001.65,0006.47,0001.17
2023-12-28 05:03:00,SystemResetWarning,0832.2,5.01,000.00,021.0,019.8,000.0,029.4,022.4,10.3,0000.0,0001.62,0006.94,0001.15
2023-12-28 05:04:00,SystemResetWarning,0832.2,5.00,000.00,021.0,019.9,000.0,029.4,022.4,10.3,0000.0,0001.65,0007.14,0001.15
2023-12-28 05:05:00,SystemResetWarning,0832.2,5.00,000.00,021.0,019.8,000.0,029.4,022.4,10.3,0000.0,0001.65,0007.07,0001.13
2023-12-28 05:06:00,SystemResetWarning,0832.2,5.00,000.00,021.0,019.8,000.0,029.4,022.4,10.3,0000.0,0001.63,0006.17,0001.13
2023-12-28 05:07:00,SystemResetWarning,0832.2,5.00,000.00,021.0,019.8,000.0,029.4,022.4,10.3,0000.0,0001.61,0006.21,0001.11
2023-12-28 05:08:00,SystemResetWarning,0832.2,5.00,000.00,021.0,019.8,000.0,029.4,022.3,10.3,0000.0,0001.62,0006.16,0001.11
2023-12-28 05:09:00,SystemResetWarning,0832.2,4.99,000.00,021.0,019.8,000.0,029.4,022.3,10.3,0000.0,0001.61,0005.56,0001.11
2023-12-28 05:10:00,SystemResetWarning,0832.2,4.99,000.00,021.0,019.8,000.0,029.4,022.3,10.5,0000.0,0001.64,0004.56,0001.12
2023-12-28 05:11:00,SystemResetWarning,0832.1,5.00,000.00,021.0,019.8,000.0,029.4,022.3,10.5,0000.0,0001.68,0004.73,0001.13
2023-12-28 05:12:00,SystemResetWarning,0832.2,5.00,000.00,021.0,019.8,000.0,029.4,022.3,10.6,0000.0,0001.62,0004.56,0001.13
2023-12-28 05:13:00,SystemResetWarning,0832.2,5.00,000.00,021.0,019.8,000.0,029.3,022.3,10.6,0000.0,0001.63,0004.35,0001.14
2023-12-28 05:14:00,SystemResetWarning,0832.2,5.00,000.00,021.0,019.8,000.0,029.3,022.3,10.6,0000.0,0001.62,0003.72,0001.15
2023-12-28 05:15:00,SystemResetWarning,0832.2,5.00,000.00,021.0,019.8,000.0,029.3,022.3,10.6,0000.0,0001.64,0003.72,0001.17
2023-12-28 05:16:00,SystemResetWarning,0832.2,5.01,000.00,021.0,019.8,000.0,029.3,022.3,10.6,0000.0,0001.66,0003.97,0001.18
2023-12-28 05:17:00,SystemResetWarning,0832.2,5.00,000.00,020.9,019.8,000.0,029.3,022.3,10.5,0000.0,0001.65,0003.60,0001.18
2023-12-28 05:18:00,SystemResetWarning,0832.2,5.01,000.00,020.9,019.7,000.0,029.3,022.2,10.6,0000.0,0001.63,0003.49,0001.18
2023-12-28 05:19:00,SystemResetWarning,0832.2,5.00,000.00,020.9,019.7,000.0,029.3,022.3,10.6,0000.0,0001.62,0003.45,0001.19
2023-12-28 05:20:00,SystemResetWarning,0832.2,5.00,000.00,020.9,019.7,000.0,029.3,022.3,10.6,0000.0,0001.61,0003.49,0001.20
2023-12-28 05:21:00,SystemResetWarning,0832.2,5.00,000.00,020.9,019.7,000.0,029.3,022.3,10.6,0000.0,0001.62,0003.60,0001.20
2023-12-28 05:22:00,SystemResetWarning,0832.3,5.00,000.00,020.9,019.7,000.0,029.3,022.3,10.6,0000.0,0001.54,0003.55,0001.20
2023-12-28 05:23:00,SystemResetWarning,0832.3,5.00,000.00,020.9,019.7,000.0,029.3,022.2,10.6,0000.0,0001.58,0003.60,0001.20
2023-12-28 05:24:00,SystemResetWarning,0832.3,5.00,000.00,020.9,019.7,000.0,029.3,022.2,10.6,0000.0,0001.62,0004.09,0001.20
2023-12-28 05:25:00,SystemResetWarning,0832.3,4.99,000.00,020.9,019.7,000.0,029.3,022.2,10.5,0000.0,0001.63,0004.52,0001.20
2023-12-28 05:26:00,SystemResetWarning,0832.3,4.99,000.00,020.9,019.7,000.0,029.3,022.2,10.6,0000.0,0001.65,0004.53,0001.19
2023-12-28 05:27:00,SystemResetWarning,0832.3,4.99,000.00,020.9,019.6,000.0,029.2,022.2,10.6,0000.0,0001.62,0004.10,0001.19
2023-12-28 05:28:00,SystemResetWarning,0832.3,5.00,000.00,020.8,019.6,000.0,029.2,022.1,10.5,0000.0,0001.63,0003.86,0001.19
2023-12-28 05:29:00,SystemResetWarning,0832.3,5.00,000.00,020.8,019.6,000.0,029.2,022.1,10.5,0000.0,0001.71,0004.28,0001.21
2023-12-28 05:30:00,SystemResetWarning,0832.3,5.01,000.00,020.8,019.6,000.0,029.2,022.1,10.6,0000.0,0001.78,0004.48,0001.21
2023-12-28 05:31:00,SystemResetWarning,0832.3,5.01,000.00,020.8,019.5,000.0,029.2,022.1,10.6,0000.0,0001.79,0005.30,0001.19
2023-12-28 05:32:00,SystemResetWarning,0832.3,4.99,000.00,020.8,019.6,000.0,029.2,022.1,10.6,0000.0,0001.76,0005.75,0001.18
2023-12-28 05:33:00,SystemResetWarning,0832.3,5.00,000.00,020.8,019.5,000.0,029.2,022.1,10.6,0000.0,0001.78,0006.48,0001.16
2023-12-28 05:34:00,SystemResetWarning,0832.3,5.00,000.00,020.8,019.5,000.0,029.2,022.1,10.7,0000.0,0001.75,0006.79,0001.15
2023-12-28 05:35:00,SystemResetWarning,0832.3,5.00,000.00,020.8,019.5,000.0,029.2,022.1,10.7,0000.0,0001.71,0006.61,0001.14
2023-12-28 05:36:00,SystemResetWarning,0832.3,5.00,000.00,020.8,019.5,000.0,029.2,022.1,10.8,0000.0,0001.71,0006.22,0001.13
2023-12-28 05:37:00,SystemResetWarning,0832.3,5.00,000.00,020.8,019.5,000.0,029.1,022.1,10.9,0000.0,0001.67,0006.28,0001.12
2023-12-28 05:38:00,SystemResetWarning,0832.3,5.00,000.00,020.8,019.5,000.0,029.1,022.1,10.9,0000.0,0001.63,0006.32,0001.10
2023-12-28 05:39:00,SystemResetWarning,0832.3,5.01,000.00,020.8,019.5,000.0,029.1,022.1,10.9,0000.0,0001.62,0006.68,0001.09
2023-12-28 05:40:00,SystemResetWarning,0832.3,5.01,000.00,020.7,019.5,000.0,029.1,022.1,10.9,0000.0,0001.59,0006.47,0001.08
2023-12-28 05:41:00,SystemResetWarning,0832.3,5.00,000.00,020.7,019.5,000.0,029.1,022.1,10.9,0000.0,0001.58,0007.19,0001.07
2023-12-28 05:42:00,SystemResetWarning,0832.3,5.00,000.00,020.7,019.6,000.0,029.1,022.1,10.9,0000.0,0001.56,0006.82,0001.07
2023-12-28 05:43:00,SystemResetWarning,0832.3,5.00,000.00,020.7,019.6,000.0,029.1,022.1,11.0,0000.0,0001.54,0006.36,0001.07
2023-12-28 05:44:00,SystemResetWarning,0832.3,5.00,000.00,020.7,019.6,000.0,029.1,022.1,11.0,0000.0,0001.51,0005.20,0001.07
2023-12-28 05:45:00,SystemResetWarning,0832.3,4.99,000.00,020.7,019.6,000.0,029.1,022.1,11.0,0000.0,0001.56,0005.05,0001.08
2023-12-28 05:46:00,SystemResetWarning,0832.3,5.00,000.00,020.7,019.6,000.0,029.1,022.1,11.1,0000.0,0001.56,0004.78,0001.07
2023-12-28 05:47:00,SystemResetWarning,0832.3,5.00,000.00,020.7,019.6,000.0,029.1,022.1,11.1,0000.0,0001.58,0005.15,0001.07
2023-12-28 05:48:00,SystemResetWarning,0832.3,5.00,000.00,020.7,019.6,000.0,029.1,022.1,11.1,0000.0,0001.59,0005.09,0001.08
2023-12-28 05:49:00,SystemResetWarning,0832.3,5.00,000.00,020.7,019.6,000.0,029.1,022.1,11.1,0000.0,0001.64,0005.18,0001.08
2023-12-28 05:50:00,SystemResetWarning,0832.3,4.99,000.00,020.7,019.6,000.0,029.1,022.0,11.1,0000.0,0001.67,0004.97,0001.09
2023-12-28 05:51:00,SystemResetWarning,0832.3,5.00,000.00,020.7,019.6,000.0,029.1,022.1,11.1,0000.0,0001.70,0004.92,0001.09
2023-12-28 05:52:00,SystemResetWarning,0832.3,5.01,000.00,020.7,019.7,000.0,029.1,022.1,11.1,0000.0,0001.68,0004.26,0001.10
2023-12-28 05:53:00,SystemResetWarning,0832.3,5.01,000.00,020.7,019.7,000.0,029.1,022.1,11.1,0000.0,0001.73,0004.39,0001.10
2023-12-28 05:54:00,SystemResetWarning,0832.3,5.00,000.00,020.7,019.7,000.0,029.1,022.1,11.1,0000.0,0001.80,0005.19,0001.11
2023-12-28 05:55:00,SystemResetWarning,0832.3,5.00,000.00,020.7,019.7,000.0,029.0,022.0,11.1,0000.0,0001.87,0005.96,0001.12
2023-12-28 05:56:00,SystemResetWarning,0832.2,4.99,000.00,020.7,019.6,000.0,029.0,022.0,11.1,0000.0,0001.87,0005.85,0001.13
2023-12-28 05:57:00,SystemResetWarning,0832.3,4.99,000.00,020.7,019.6,000.0,029.0,022.0,11.0,0000.0,0001.90,0005.93,0001.14
2023-12-28 05:58:00,SystemResetWarning,0832.3,5.01,000.00,020.7,019.6,000.0,029.0,022.0,11.0,0000.0,0001.88,0005.52,0001.16
2023-12-28 05:59:00,SystemResetWarning,0832.3,5.01,000.00,020.7,019.5,000.0,029.0,022.0,11.0,0000.0,0001.88,0005.46,0001.17
